Location: Unspecified
(64.9000°N, 0.0000°E)
Time: 04:27:56
(UTC+00:00)

Altair - Pass Details

Date: 19 June 2019
Orbit: 1501 x 1683 km, 47.2° (Epoch: 19 July)

Event Time Altitude Azimuth Distance (km) Brightness Sun altitude
Rises 02:17:38 0° 268° (W) 4,856 9.8 2.2°
Reaches altitude 10° 02:21:55 10° 253° (WSW) 3,896 9.2 2.4°
Maximum altitude 02:28:12 19° 213° (SSW) 3,250 8.6 2.7°
Drops below altitude 10° 02:34:34 10° 173° (S) 3,940 9.2 3.1°
Sets 02:38:57 0° 158° (SSE) 4,930 9.8 3.4°
